Location: Moscow
(55.7500°N, 37.5830°E)
Time: 07:49:44
(UTC+03:00)

A-11 Canister half - Pass Details

Date: 30 November 2021
Orbit: 1524 x 1684 km, 47.3° (Epoch: 17 January)

Event Time Altitude Azimuth Distance (km) Brightness Sun altitude
Exits shadow 05:45:20 25° 242° (WSW) 2,906 10.0 -22.3°
Maximum altitude 05:51:20 53° 178° (S) 1,953 9.5 -21.5°
Drops below altitude 10° 06:00:42 10° 105° (ESE) 3,827 12.3 -20.2°
Sets 06:03:51 0° 101° (ESE) 4,791 13.2 -19.8°
